Time,TemperatureF,DewpointF,PressureIn,WindDirection,WindDirectionDegrees,WindSpeedMPH,WindSpeedGustMPH,Humidity,HourlyPrecipIn,Conditions,Clouds,dailyrainin,SolarRadiationWatts/m^2,SoftwareType,DateUTC
2013-03-22 00:00:00,35.8,32.0,29.76,WNW,300,9.6,15.0,86,0.00,RA,,0.00,0.0,WeatherDisplay:10.37,2013-03-21 23:00:00,
2013-03-22 00:05:00,35.8,32.0,29.75,WNW,295,5.8,19.6,86,0.00,RA,,0.00,0.0,WeatherDisplay:10.37,2013-03-21 23:05:00,
2013-03-22 00:11:00,35.7,31.9,29.75,WNW,284,9.3,14.0,86,0.00,BKN,,0.00,0.0,WeatherDisplay:10.37,2013-03-21 23:11:00,
2013-03-22 00:16:00,35.7,31.9,29.75,WNW,296,11.1,18.0,86,0.00,BKN,,0.00,0.0,WeatherDisplay:10.37,2013-03-21 23:16:00,
2013-03-22 00:21:00,35.6,31.8,29.75,NNW,331,10.3,21.0,86,0.00,BKN,,0.00,0.0,WeatherDisplay:10.37,2013-03-21 23:21:00,
2013-03-22 00:27:00,35.6,31.8,29.75,NW,314,9.3,17.3,86,0.00,BKN,,0.00,0.0,WeatherDisplay:10.37,2013-03-21 23:27:00,
2013-03-22 00:32:00,35.4,31.6,29.75,WNW,283,9.9,21.9,86,0.00,BKN,,0.00,0.0,WeatherDisplay:10.37,2013-03-21 23:32:00,
2013-03-22 00:37:00,35.4,31.6,29.76,NNW,339,9.7,20.7,86,0.00,BKN,,0.00,0.0,WeatherDisplay:10.37,2013-03-21 23:37:00,
2013-03-22 00:42:00,35.3,31.5,29.76,WSW,252,12.8,21.0,86,0.00,BKN,,0.00,0.0,WeatherDisplay:10.37,2013-03-21 23:42:00,
2013-03-22 00:47:00,35.2,31.4,29.76,North,355,11.7,21.0,86,0.00,BKN,,0.00,0.0,WeatherDisplay:10.37,2013-03-21 23:47:00,
2013-03-22 00:52:00,35.2,31.4,29.76,NNW,340,8.4,17.3,86,0.00,BKN,,0.00,0.0,WeatherDisplay:10.37,2013-03-21 23:52:00,
2013-03-22 00:57:00,35.1,31.3,29.76,WNW,286,10.2,17.0,86,0.00,BKN,,0.00,0.0,WeatherDisplay:10.37,2013-03-21 23:57:00,
2013-03-22 01:02:00,35.1,31.3,29.76,WNW,302,8.5,18.0,86,0.00,BKN,,0.00,0.0,WeatherDisplay:10.37,2013-03-22 00:02:00,
2013-03-22 01:07:00,35.1,31.0,29.76,WNW,290,9.8,24.2,85,0.00,BKN,,0.00,0.0,WeatherDisplay:10.37,2013-03-22 00:07:00,
2013-03-22 01:13:00,35.1,31.0,29.76,NW,312,6.7,12.7,85,0.00,BKN,,0.00,0.0,WeatherDisplay:10.37,2013-03-22 00:13:00,
2013-03-22 01:18:00,35.0,30.9,29.76,North,5,4.8,11.5,85,0.00,BKN,,0.00,0.0,WeatherDisplay:10.37,2013-03-22 00:18:00,
2013-03-22 01:23:00,34.9,30.8,29.76,WNW,303,8.1,16.1,85,0.00,BKN,,0.00,0.0,WeatherDisplay:10.37,2013-03-22 00:23:00,
2013-03-22 01:28:00,34.9,30.8,29.76,West,268,9.0,21.0,85,0.00,BKN,,0.00,0.0,WeatherDisplay:10.37,2013-03-22 00:28:00,
2013-03-22 01:33:00,34.9,30.6,29.76,West,281,8.0,17.3,84,0.00,BKN,,0.00,0.0,WeatherDisplay:10.37,2013-03-22 00:33:00,
2013-03-22 01:38:00,34.9,30.6,29.75,WNW,294,8.9,16.1,84,0.00,BKN,,0.00,0.0,WeatherDisplay:10.37,2013-03-22 00:38:00,
2013-03-22 01:43:00,34.8,30.5,29.76,WNW,298,9.2,23.0,84,0.00,BKN,,0.00,0.0,WeatherDisplay:10.37,2013-03-22 00:43:00,
2013-03-22 01:48:00,34.8,30.5,29.75,North,360,7.4,16.0,84,0.00,BKN,,0.00,0.0,WeatherDisplay:10.37,2013-03-22 00:48:00,
2013-03-22 01:54:00,34.8,30.2,29.75,North,360,9.9,20.0,83,0.00,BKN,,0.00,0.0,WeatherDisplay:10.37,2013-03-22 00:54:00,
2013-03-22 01:59:00,34.7,30.1,29.75,NW,324,8.5,13.8,83,0.00,BKN,,0.00,0.0,WeatherDisplay:10.37,2013-03-22 00:59:00,
2013-03-22 02:04:00,34.7,30.1,29.75,NNW,335,9.3,17.0,83,0.00,BKN,,0.00,0.0,WeatherDisplay:10.37,2013-03-22 01:04:00,
2013-03-22 02:09:00,34.7,30.1,29.75,North,360,7.7,13.0,83,0.00,BKN,,0.00,0.0,WeatherDisplay:10.37,2013-03-22 01:09:00,
2013-03-22 02:14:00,34.6,30.0,29.75,North,355,7.6,19.6,83,0.00,BKN,,0.00,0.0,WeatherDisplay:10.37,2013-03-22 01:14:00,
2013-03-22 02:19:00,34.6,30.0,29.75,WNW,296,9.8,16.1,83,0.00,BKN,,0.00,0.0,WeatherDisplay:10.37,2013-03-22 01:19:00,
2013-03-22 02:24:00,34.6,30.0,29.75,NNW,344,9.4,18.0,83,0.00,BKN,,0.00,0.0,WeatherDisplay:10.37,2013-03-22 01:24:00,
2013-03-22 02:30:00,34.6,30.0,29.75,NW,304,9.1,16.0,83,0.00,BKN,,0.00,0.0,WeatherDisplay:10.37,2013-03-22 01:30:00,
2013-03-22 02:35:00,34.5,29.6,29.75,NW,310,13.2,19.6,82,0.00,BKN,,0.00,0.0,WeatherDisplay:10.37,2013-03-22 01:35:00,
2013-03-22 02:40:00,34.5,29.6,29.75,North,9,7.8,16.1,82,0.00,BKN,,0.00,0.0,WeatherDisplay:10.37,2013-03-22 01:40:00,
2013-03-22 02:45:00,34.5,29.6,29.75,NW,326,9.6,18.0,82,0.00,BKN,,0.00,0.0,WeatherDisplay:10.37,2013-03-22 01:45:00,
2013-03-22 02:50:00,34.5,29.6,29.75,WNW,289,11.5,19.0,82,0.00,BKN,,0.00,0.0,WeatherDisplay:10.37,2013-03-22 01:50:00,
2013-03-22 02:55:00,34.5,29.6,29.75,NW,324,9.1,19.6,82,0.00,BKN,,0.00,0.0,WeatherDisplay:10.37,2013-03-22 01:55:00,
2013-03-22 03:00:00,34.5,29.6,29.75,North,360,8.9,15.0,82,0.00,BKN,,0.00,0.0,WeatherDisplay:10.37,2013-03-22 02:00:00,
2013-03-22 03:05:00,34.4,29.5,29.75,WNW,292,10.7,19.0,82,0.00,BKN,,0.00,0.0,WeatherDisplay:10.37,2013-03-22 02:05:00,
2013-03-22 03:10:00,34.4,29.5,29.75,NW,325,5.1,16.1,82,0.00,BKN,,0.00,0.0,WeatherDisplay:10.37,2013-03-22 02:10:00,
2013-03-22 03:15:00,34.3,29.4,29.75,NNW,330,6.4,11.5,82,0.00,BKN,,0.00,0.0,WeatherDisplay:10.37,2013-03-22 02:15:00,
2013-03-22 03:20:00,34.3,29.4,29.75,NW,318,5.8,19.6,82,0.00,BKN,,0.00,0.0,WeatherDisplay:10.37,2013-03-22 02:20:00,
2013-03-22 03:25:00,34.3,29.1,29.75,WNW,288,8.6,19.6,81,0.00,BKN,,0.00,0.0,WeatherDisplay:10.37,2013-03-22 02:25:00,
2013-03-22 03:30:00,34.3,29.4,29.75,NW,311,10.7,16.0,82,0.00,BKN,,0.00,0.0,WeatherDisplay:10.37,2013-03-22 02:30:00,
2013-03-22 03:35:00,34.3,29.4,29.75,North,360,11.0,20.0,82,0.00,BKN,,0.00,0.0,WeatherDisplay:10.37,2013-03-22 02:35:00,
2013-03-22 03:40:00,34.3,29.4,29.75,NW,320,10.5,19.6,82,0.00,BKN,,0.00,0.0,WeatherDisplay:10.37,2013-03-22 02:40:00,
2013-03-22 03:45:00,34.2,29.3,29.75,West,274,7.5,12.7,82,0.00,BKN,,0.00,0.0,WeatherDisplay:10.37,2013-03-22 02:45:00,
2013-03-22 03:50:00,34.3,29.1,29.75,NNW,333,7.4,16.1,81,0.00,BKN,,0.00,0.0,WeatherDisplay:10.37,2013-03-22 02:50:00,
2013-03-22 03:55:00,34.2,29.0,29.75,WNW,302,11.9,21.0,81,0.00,BKN,,0.00,0.0,WeatherDisplay:10.37,2013-03-22 02:55:00,
2013-03-22 04:00:00,34.2,29.0,29.75,NNW,347,7.8,13.8,81,0.00,BKN,,0.00,0.0,WeatherDisplay:10.37,2013-03-22 03:00:00,
2013-03-22 04:05:00,34.2,29.3,29.75,NNW,339,8.0,12.0,82,0.00,BKN,,0.00,0.0,WeatherDisplay:10.37,2013-03-22 03:05:00,
2013-03-22 04:10:00,34.2,29.3,29.75,WNW,302,8.4,13.8,82,0.00,BKN,,0.00,0.0,WeatherDisplay:10.37,2013-03-22 03:10:00,
2013-03-22 04:15:00,34.2,29.3,29.75,WNW,302,9.8,19.6,82,0.00,BKN,,0.00,0.0,WeatherDisplay:10.37,2013-03-22 03:15:00,
2013-03-22 04:20:00,34.2,29.3,29.75,NNW,342,8.3,12.0,82,0.00,BKN,,0.00,0.0,WeatherDisplay:10.37,2013-03-22 03:20:00,
2013-03-22 04:25:00,34.1,29.2,29.76,North,360,8.5,13.8,82,0.00,BKN,,0.00,0.0,WeatherDisplay:10.37,2013-03-22 03:25:00,
2013-03-22 04:30:00,34.1,29.2,29.76,NW,315,7.0,11.0,82,0.00,BKN,,0.00,0.0,WeatherDisplay:10.37,2013-03-22 03:30:00,
2013-03-22 04:35:00,34.0,29.1,29.76,NNW,333,5.2,15.0,82,0.00,BKN,,0.00,0.0,WeatherDisplay:10.37,2013-03-22 03:35:00,
2013-03-22 04:40:00,34.0,29.4,29.76,NW,319,6.2,11.5,83,0.00,BKN,,0.00,0.0,WeatherDisplay:10.37,2013-03-22 03:40:00,
2013-03-22 04:45:00,34.0,29.4,29.76,NNW,334,6.2,12.0,83,0.00,BKN,,0.00,0.0,WeatherDisplay:10.37,2013-03-22 03:45:00,
2013-03-22 04:50:00,34.0,29.4,29.76,North,360,5.3,11.0,83,0.00,BKN,,0.00,0.0,WeatherDisplay:10.37,2013-03-22 03:50:00,
2013-03-22 04:55:00,33.9,29.3,29.76,NW,314,7.0,15.0,83,0.00,BKN,,0.00,0.0,WeatherDisplay:10.37,2013-03-22 03:55:00,
2013-03-22 05:00:00,33.9,29.3,29.76,NW,312,6.0,14.0,83,0.00,BKN,,0.00,0.0,WeatherDisplay:10.37,2013-03-22 04:00:00,
2013-03-22 05:04:00,33.9,29.3,29.76,NW,322,6.8,11.5,83,0.00,BKN,,0.00,0.0,WeatherDisplay:10.37,2013-03-22 04:04:00,
2013-03-22 05:05:00,33.9,29.3,29.76,NW,316,6.0,14.0,83,0.00,BKN,,0.00,0.0,WeatherDisplay:10.37,2013-03-22 04:05:00,
2013-03-22 05:10:00,33.9,29.3,29.76,NW,304,5.9,13.0,83,0.00,BKN,,0.00,0.0,WeatherDisplay:10.37,2013-03-22 04:10:00,
2013-03-22 05:15:00,33.9,29.3,29.76,NW,306,6.0,15.0,83,0.00,BKN,,0.00,0.0,WeatherDisplay:10.37,2013-03-22 04:15:00,
2013-03-22 05:19:00,33.8,29.2,29.76,NNW,331,7.0,11.5,83,0.00,BKN,,0.00,0.0,WeatherDisplay:10.37,2013-03-22 04:19:00,
2013-03-22 05:24:00,33.8,29.2,29.76,NW,316,5.8,13.0,83,0.00,BKN,,0.00,0.0,WeatherDisplay:10.37,2013-03-22 04:24:00,
2013-03-22 05:29:00,33.8,29.2,29.76,WNW,286,6.6,11.0,83,0.00,BKN,,0.00,0.0,WeatherDisplay:10.37,2013-03-22 04:29:00,
2013-03-22 05:34:00,33.8,29.2,29.76,NNW,335,4.2,11.5,83,0.00,BKN,,0.00,0.0,WeatherDisplay:10.37,2013-03-22 04:34:00,
2013-03-22 05:39:00,33.8,29.2,29.76,WNW,290,6.3,11.5,83,0.00,BKN,,0.00,0.0,WeatherDisplay:10.37,2013-03-22 04:39:00,
2013-03-22 05:44:00,33.8,29.2,29.76,NW,317,3.6,12.7,83,0.00,BKN,,0.00,0.0,WeatherDisplay:10.37,2013-03-22 04:44:00,
2013-03-22 05:49:00,33.8,29.2,29.77,NNW,331,10.7,14.0,83,0.00,BKN,,0.00,0.0,WeatherDisplay:10.37,2013-03-22 04:49:00,
2013-03-22 05:54:00,33.8,29.2,29.76,NNW,336,7.8,16.1,83,0.00,BKN,,0.00,5.0,WeatherDisplay:10.37,2013-03-22 04:54:00,
2013-03-22 05:59:00,33.8,29.2,29.76,West,259,6.5,12.0,83,0.00,BKN,,0.00,9.0,WeatherDisplay:10.37,2013-03-22 04:59:00,
2013-03-22 06:04:00,33.8,29.2,29.76,NNW,346,9.8,17.0,83,0.00,BKN,,0.00,12.0,WeatherDisplay:10.37,2013-03-22 05:04:00,
2013-03-22 06:09:00,33.8,29.2,29.76,WNW,286,6.2,18.4,83,0.00,BKN,,0.00,16.0,WeatherDisplay:10.37,2013-03-22 05:09:00,
2013-03-22 06:14:00,33.8,29.2,29.76,NNW,348,8.3,15.0,83,0.00,BKN,,0.00,21.0,WeatherDisplay:10.37,2013-03-22 05:14:00,
2013-03-22 06:20:00,33.8,29.2,29.76,NNW,331,8.8,15.0,83,0.00,BKN,,0.00,26.0,WeatherDisplay:10.37,2013-03-22 05:20:00,
2013-03-22 06:25:00,33.8,29.2,29.76,NW,312,7.0,14.0,83,0.00,BKN,,0.00,33.0,WeatherDisplay:10.37,2013-03-22 05:25:00,
2013-03-22 06:30:00,33.8,29.2,29.76,NW,313,7.7,12.0,83,0.00,BKN,,0.00,40.0,WeatherDisplay:10.37,2013-03-22 05:30:00,
2013-03-22 06:35:00,33.8,29.2,29.76,WNW,293,10.0,19.6,83,0.00,BKN,,0.00,47.0,WeatherDisplay:10.37,2013-03-22 05:35:00,
2013-03-22 06:40:00,33.9,29.3,29.76,NNW,340,6.1,13.8,83,0.00,BKN,,0.00,53.0,WeatherDisplay:10.37,2013-03-22 05:40:00,
2013-03-22 06:45:00,33.9,29.3,29.77,NW,317,6.0,15.0,83,0.00,SCT,,0.00,58.0,WeatherDisplay:10.37,2013-03-22 05:45:00,
2013-03-22 06:50:00,34.0,29.4,29.77,NW,311,5.3,11.5,83,0.00,SCT,,0.00,65.0,WeatherDisplay:10.37,2013-03-22 05:50:00,
2013-03-22 06:55:00,34.1,29.2,29.76,NNW,338,8.0,15.0,82,0.00,SCT,,0.00,70.0,WeatherDisplay:10.37,2013-03-22 05:55:00,
2013-03-22 07:00:00,34.1,29.5,29.76,SSW,201,8.0,15.0,83,0.00,SCT,,0.00,74.0,WeatherDisplay:10.37,2013-03-22 06:00:00,
2013-03-22 07:05:00,34.2,29.3,29.76,NW,318,6.0,16.0,82,0.00,SCT,,0.00,83.0,WeatherDisplay:10.37,2013-03-22 06:05:00,
2013-03-22 07:10:00,34.3,29.4,29.76,WNW,293,7.1,14.0,82,0.00,SCT,,0.00,90.0,WeatherDisplay:10.37,2013-03-22 06:10:00,
2013-03-22 07:15:00,34.3,29.4,29.77,NW,305,7.0,17.3,82,0.00,SCT,,0.00,93.0,WeatherDisplay:10.37,2013-03-22 06:15:00,
2013-03-22 07:20:00,34.4,29.5,29.77,NNW,339,7.9,18.4,82,0.00,SCT,,0.00,98.0,WeatherDisplay:10.37,2013-03-22 06:20:00,
2013-03-22 07:25:00,34.4,29.5,29.77,WNW,296,5.3,19.6,82,0.00,SCT,,0.00,109.0,WeatherDisplay:10.37,2013-03-22 06:25:00,
2013-03-22 07:30:00,34.5,29.3,29.77,NW,306,7.4,12.7,81,0.00,SCT,,0.00,120.0,WeatherDisplay:10.37,2013-03-22 06:30:00,
2013-03-22 07:35:00,34.6,29.7,29.77,NW,311,8.0,18.0,82,0.00,SCT,,0.00,134.0,WeatherDisplay:10.37,2013-03-22 06:35:00,
2013-03-22 07:40:00,34.7,29.8,29.76,WSW,240,9.7,18.0,82,0.00,SCT,,0.00,148.0,WeatherDisplay:10.37,2013-03-22 06:40:00,
2013-03-22 07:45:00,34.9,29.7,29.76,NNW,342,9.7,16.1,81,0.00,SCT,,0.00,148.0,WeatherDisplay:10.37,2013-03-22 06:45:00,
2013-03-22 07:50:00,35.0,29.8,29.76,NW,319,8.8,23.0,81,0.00,SCT,,0.00,176.0,WeatherDisplay:10.37,2013-03-22 06:50:00,
2013-03-22 07:55:00,35.1,29.9,29.76,West,267,10.0,16.1,81,0.00,SCT,,0.00,174.0,WeatherDisplay:10.37,2013-03-22 06:55:00,
2013-03-22 08:00:00,35.2,29.6,29.76,NW,316,8.0,19.6,80,0.00,SCT,,0.00,153.0,WeatherDisplay:10.37,2013-03-22 07:00:00,
2013-03-22 08:05:00,35.3,29.7,29.76,NNW,328,6.3,16.1,80,0.00,SCT,,0.00,160.0,WeatherDisplay:10.37,2013-03-22 07:05:00,
2013-03-22 08:10:00,35.4,29.8,29.76,NE,41,6.4,19.6,80,0.00,SCT,,0.00,169.0,WeatherDisplay:10.37,2013-03-22 07:10:00,
2013-03-22 08:15:00,35.4,29.8,29.77,NW,316,10.0,20.0,80,0.00,SCT,,0.00,148.0,WeatherDisplay:10.37,2013-03-22 07:15:00,
2013-03-22 08:20:00,35.5,29.6,29.77,NW,313,5.7,17.3,79,0.00,SCT,,0.00,160.0,WeatherDisplay:10.37,2013-03-22 07:20:00,
2013-03-22 08:25:00,35.5,29.9,29.77,West,261,10.0,18.4,80,0.00,SCT,,0.00,162.0,WeatherDisplay:10.37,2013-03-22 07:25:00,
2013-03-22 08:30:00,35.6,29.7,29.77,NNW,329,7.9,18.4,79,0.00,SCT,,0.00,188.0,WeatherDisplay:10.37,2013-03-22 07:30:00,
2013-03-22 08:35:00,35.8,29.9,29.78,NW,324,8.3,17.3,79,0.00,SCT,,0.00,195.0,WeatherDisplay:10.37,2013-03-22 07:35:00,
2013-03-22 08:40:00,36.0,30.1,29.77,WNW,290,8.8,16.1,79,0.00,SCT,,0.00,206.0,WeatherDisplay:10.37,2013-03-22 07:40:00,
2013-03-22 08:45:00,36.1,29.9,29.78,West,275,12.7,21.0,78,0.00,SCT,,0.00,218.0,WeatherDisplay:10.37,2013-03-22 07:45:00,
2013-03-22 08:50:00,36.3,30.1,29.78,NNW,340,9.2,17.3,78,0.00,SCT,,0.00,241.0,WeatherDisplay:10.37,2013-03-22 07:50:00,
2013-03-22 08:55:00,36.5,30.3,29.77,WNW,296,7.9,16.1,78,0.00,SCT,,0.00,258.0,WeatherDisplay:10.37,2013-03-22 07:55:00,
2013-03-22 09:00:00,36.8,30.3,29.77,NW,315,10.4,19.6,77,0.00,SCT,,0.00,306.0,WeatherDisplay:10.37,2013-03-22 08:00:00,
2013-03-22 09:05:00,37.1,30.6,29.78,NW,311,9.1,19.6,77,0.00,FEW,,0.00,299.0,WeatherDisplay:10.37,2013-03-22 08:05:00,
2013-03-22 09:10:00,37.4,30.5,29.78,West,281,9.1,21.9,76,0.00,SCT,,0.00,234.0,WeatherDisplay:10.37,2013-03-22 08:10:00,
2013-03-22 09:15:00,37.6,30.7,29.77,NW,323,9.7,16.1,76,0.00,SCT,,0.00,250.0,WeatherDisplay:10.37,2013-03-22 08:15:00,
2013-03-22 09:20:00,37.8,30.9,29.78,WNW,298,10.6,18.0,76,0.00,SCT,,0.00,373.0,WeatherDisplay:10.37,2013-03-22 08:20:00,
2013-03-22 09:25:00,38.1,30.9,29.78,NW,310,8.1,18.4,75,0.00,FEW,,0.00,357.0,WeatherDisplay:10.37,2013-03-22 08:25:00,
2013-03-22 09:30:00,38.4,30.8,29.78,NNW,331,11.6,17.3,74,0.00,FEW,,0.00,401.0,WeatherDisplay:10.37,2013-03-22 08:30:00,
2013-03-22 09:35:00,38.7,31.1,29.78,WNW,302,8.1,15.0,74,0.00,FEW,,0.00,345.0,WeatherDisplay:10.37,2013-03-22 08:35:00,
2013-03-22 09:40:00,38.9,31.3,29.78,WNW,290,8.2,14.0,74,0.00,FEW,,0.00,369.0,WeatherDisplay:10.37,2013-03-22 08:40:00,
2013-03-22 09:45:00,39.0,31.1,29.79,West,277,10.5,17.3,73,0.00,FEW,,0.00,383.0,WeatherDisplay:10.37,2013-03-22 08:45:00,
2013-03-22 09:50:00,39.3,31.4,29.79,WNW,300,7.1,13.0,73,0.00,FEW,,0.00,443.0,WeatherDisplay:10.37,2013-03-22 08:50:00,
2013-03-22 09:55:00,39.8,31.5,29.79,West,275,12.6,24.2,72,0.00,CLR,,0.00,480.0,WeatherDisplay:10.37,2013-03-22 08:55:00,
2013-03-22 10:00:00,40.1,31.8,29.79,NW,326,5.0,10.4,72,0.00,CLR,,0.00,480.0,WeatherDisplay:10.37,2013-03-22 09:00:00,
2013-03-22 10:05:00,40.5,31.8,29.79,West,270,7.9,15.0,71,0.00,CLR,,0.00,410.0,WeatherDisplay:10.37,2013-03-22 09:05:00,
2013-03-22 10:10:00,40.8,31.4,29.79,West,269,11.6,19.0,69,0.00,CLR,,0.00,454.0,WeatherDisplay:10.37,2013-03-22 09:10:00,
2013-03-22 10:15:00,40.7,31.3,29.79,NNW,337,9.1,17.3,69,0.00,CLR,,0.00,469.0,WeatherDisplay:10.37,2013-03-22 09:15:00,
2013-03-22 10:20:00,40.9,31.5,29.80,NW,311,9.6,17.3,69,0.00,CLR,,0.00,506.0,WeatherDisplay:10.37,2013-03-22 09:20:00,
2013-03-22 10:26:00,41.5,32.1,29.80,West,272,7.6,13.8,69,0.00,CLR,,0.00,446.0,WeatherDisplay:10.37,2013-03-22 09:26:00,
2013-03-22 10:31:00,41.6,31.8,29.80,West,281,10.3,24.2,68,0.00,CLR,,0.00,561.0,WeatherDisplay:10.37,2013-03-22 09:31:00,
2013-03-22 10:36:00,41.4,31.6,29.80,WNW,294,9.7,21.9,68,0.00,CLR,,0.00,552.0,WeatherDisplay:10.37,2013-03-22 09:36:00,
2013-03-22 10:41:00,41.6,31.1,29.80,NW,318,13.2,20.7,66,0.00,CLR,,0.00,591.0,WeatherDisplay:10.37,2013-03-22 09:41:00,
2013-03-22 10:46:00,41.6,31.8,29.80,WNW,298,9.3,16.1,68,0.00,CLR,,0.00,592.0,WeatherDisplay:10.37,2013-03-22 09:46:00,
2013-03-22 10:51:00,42.1,32.7,29.80,WNW,302,6.1,11.5,69,0.00,CLR,,0.00,642.0,WeatherDisplay:10.37,2013-03-22 09:51:00,
2013-03-22 10:56:00,42.7,32.5,29.80,WNW,300,6.8,15.0,67,0.00,CLR,,0.00,290.0,WeatherDisplay:10.37,2013-03-22 09:56:00,
2013-03-22 11:01:00,42.5,32.3,29.80,NW,321,10.8,20.7,67,0.00,CLR,,0.00,353.0,WeatherDisplay:10.37,2013-03-22 10:01:00,
2013-03-22 11:06:00,42.1,31.6,29.80,NW,307,11.4,20.7,66,0.00,SCT,,0.00,283.0,WeatherDisplay:10.37,2013-03-22 10:06:00,
2013-03-22 11:11:00,42.0,32.2,29.80,NW,310,8.4,13.8,68,0.00,FEW,,0.00,666.0,WeatherDisplay:10.37,2013-03-22 10:11:00,
2013-03-22 11:16:00,42.5,32.3,29.80,NNW,338,9.5,25.3,67,0.00,CLR,,0.00,708.0,WeatherDisplay:10.37,2013-03-22 10:16:00,
2013-03-22 11:21:00,42.6,32.4,29.80,West,265,12.7,23.0,67,0.00,CLR,,0.00,323.0,WeatherDisplay:10.37,2013-03-22 10:21:00,
2013-03-22 11:26:00,42.1,31.6,29.80,NW,313,12.1,21.0,66,0.00,FEW,,0.00,563.0,WeatherDisplay:10.37,2013-03-22 10:26:00,
2013-03-22 11:31:00,42.1,31.9,29.80,NNE,14,11.6,23.0,67,0.00,FEW,,0.00,649.0,WeatherDisplay:10.37,2013-03-22 10:31:00,
2013-03-22 11:36:00,42.3,32.5,29.80,WNW,300,8.2,20.0,68,0.00,CLR,,0.00,626.0,WeatherDisplay:10.37,2013-03-22 10:36:00,
2013-03-22 11:41:00,42.4,32.2,29.80,WNW,284,8.6,12.0,67,0.00,CLR,,0.00,490.0,WeatherDisplay:10.37,2013-03-22 10:41:00,
2013-03-22 11:46:00,42.5,31.9,29.80,NW,321,13.1,23.0,66,0.00,CLR,,0.00,612.0,WeatherDisplay:10.37,2013-03-22 10:46:00,
2013-03-22 11:51:00,42.9,32.3,29.80,WNW,297,7.5,26.5,66,0.00,CLR,,0.00,601.0,WeatherDisplay:10.37,2013-03-22 10:51:00,
2013-03-22 11:56:00,43.1,32.1,29.81,West,279,13.3,25.3,65,0.00,CLR,,0.00,606.0,WeatherDisplay:10.37,2013-03-22 10:56:00,
2013-03-22 12:01:00,43.0,32.4,29.81,West,266,12.1,21.0,66,0.00,CLR,,0.00,603.0,WeatherDisplay:10.37,2013-03-22 11:01:00,
2013-03-22 12:06:00,42.9,31.9,29.81,West,268,8.2,21.9,65,0.00,CLR,,0.00,599.0,WeatherDisplay:10.37,2013-03-22 11:06:00,
2013-03-22 12:11:00,43.1,32.5,29.80,WNW,297,10.1,18.4,66,0.00,CLR,,0.00,596.0,WeatherDisplay:10.37,2013-03-22 11:11:00,
2013-03-22 12:16:00,43.8,33.6,29.81,WNW,300,9.0,16.1,67,0.00,CLR,,0.00,599.0,WeatherDisplay:10.37,2013-03-22 11:16:00,
2013-03-22 12:21:00,44.1,32.7,29.81,NNW,347,10.3,20.0,64,0.00,CLR,,0.00,598.0,WeatherDisplay:10.37,2013-03-22 11:21:00,
2013-03-22 12:26:00,43.9,32.1,29.80,NNE,31,6.8,17.3,63,0.00,CLR,,0.00,612.0,WeatherDisplay:10.37,2013-03-22 11:26:00,
2013-03-22 12:31:00,43.9,32.5,29.80,NW,312,8.9,15.0,64,0.00,CLR,,0.00,592.0,WeatherDisplay:10.37,2013-03-22 11:31:00,
2013-03-22 12:36:00,43.8,32.0,29.80,WNW,288,5.5,19.6,63,0.00,CLR,,0.00,575.0,WeatherDisplay:10.37,2013-03-22 11:36:00,
2013-03-22 12:41:00,43.6,31.8,29.80,NW,319,10.8,21.9,63,0.00,CLR,,0.00,575.0,WeatherDisplay:10.37,2013-03-22 11:41:00,
2013-03-22 12:46:00,43.7,32.7,29.81,NNW,345,12.0,18.4,65,0.00,CLR,,0.00,580.0,WeatherDisplay:10.37,2013-03-22 11:46:00,
2013-03-22 12:51:00,44.0,32.2,29.81,West,270,9.1,17.3,63,0.00,CLR,,0.00,585.0,WeatherDisplay:10.37,2013-03-22 11:51:00,
2013-03-22 12:56:00,44.0,32.2,29.81,WNW,300,9.4,17.3,63,0.00,CLR,,0.00,582.0,WeatherDisplay:10.37,2013-03-22 11:56:00,
2013-03-22 13:01:00,44.0,31.8,29.80,NW,313,8.4,14.0,62,0.00,CLR,,0.00,582.0,WeatherDisplay:10.37,2013-03-22 12:01:00,
2013-03-22 13:06:00,44.1,31.9,29.80,NW,320,11.6,18.4,62,0.00,CLR,,0.00,573.0,WeatherDisplay:10.37,2013-03-22 12:06:00,
2013-03-22 13:11:00,44.2,32.0,29.81,WNW,302,8.3,15.0,62,0.00,CLR,,0.00,573.0,WeatherDisplay:10.37,2013-03-22 12:11:00,
2013-03-22 13:16:00,44.4,32.2,29.81,NW,315,9.8,19.6,62,0.00,CLR,,0.00,580.0,WeatherDisplay:10.37,2013-03-22 12:16:00,
2013-03-22 13:21:00,44.5,32.3,29.80,NW,316,9.4,18.4,62,0.00,CLR,,0.00,548.0,WeatherDisplay:10.37,2013-03-22 12:21:00,
2013-03-22 13:26:00,44.6,32.0,29.81,NW,319,12.1,20.0,61,0.00,CLR,,0.00,548.0,WeatherDisplay:10.37,2013-03-22 12:26:00,
2013-03-22 13:31:00,44.3,31.3,29.80,West,263,10.5,19.6,60,0.00,CLR,,0.00,540.0,WeatherDisplay:10.37,2013-03-22 12:31:00,
2013-03-22 13:36:00,44.2,31.6,29.80,NW,306,14.9,23.0,61,0.00,CLR,,0.00,552.0,WeatherDisplay:10.37,2013-03-22 12:36:00,
2013-03-22 13:41:00,44.2,31.6,29.80,NW,317,7.4,23.0,61,0.00,CLR,,0.00,548.0,WeatherDisplay:10.37,2013-03-22 12:41:00,
2013-03-22 13:46:00,44.6,30.3,29.80,NW,314,7.0,16.1,57,0.00,CLR,,0.00,538.0,WeatherDisplay:10.37,2013-03-22 12:46:00,
2013-03-22 13:51:00,45.1,29.9,29.81,NNW,331,9.4,19.6,55,0.00,CLR,,0.00,541.0,WeatherDisplay:10.37,2013-03-22 12:51:00,
2013-03-22 13:56:00,45.1,30.3,29.81,NNW,341,8.7,17.3,56,0.00,CLR,,0.00,529.0,WeatherDisplay:10.37,2013-03-22 12:56:00,
2013-03-22 14:01:00,45.2,30.0,29.81,NW,321,8.5,16.1,55,0.00,CLR,,0.00,520.0,WeatherDisplay:10.37,2013-03-22 13:01:00,
2013-03-22 14:06:00,45.4,31.0,29.81,NW,318,7.0,9.2,57,0.00,CLR,,0.00,512.0,WeatherDisplay:10.37,2013-03-22 13:06:00,
2013-03-22 14:11:00,45.3,31.4,29.81,WNW,303,8.2,14.0,58,0.00,CLR,,0.00,501.0,WeatherDisplay:10.37,2013-03-22 13:11:00,
2013-03-22 14:16:00,45.4,30.6,29.81,NNW,330,8.8,14.0,56,0.00,CLR,,0.00,494.0,WeatherDisplay:10.37,2013-03-22 13:16:00,
2013-03-22 14:21:00,45.2,30.9,29.81,West,271,8.1,15.0,57,0.00,CLR,,0.00,476.0,WeatherDisplay:10.37,2013-03-22 13:21:00,
2013-03-22 14:26:00,45.1,31.6,29.81,West,279,7.4,16.1,59,0.00,CLR,,0.00,469.0,WeatherDisplay:10.37,2013-03-22 13:26:00,
2013-03-22 14:31:00,44.8,31.8,29.81,WNW,300,8.9,16.1,60,0.00,CLR,,0.00,454.0,WeatherDisplay:10.37,2013-03-22 13:31:00,
2013-03-22 14:36:00,44.5,31.5,29.81,NNW,338,7.9,13.0,60,0.00,CLR,,0.00,441.0,WeatherDisplay:10.37,2013-03-22 13:36:00,
2013-03-22 14:41:00,44.4,31.0,29.82,West,277,10.7,19.6,59,0.00,CLR,,0.00,438.0,WeatherDisplay:10.37,2013-03-22 13:41:00,
2013-03-22 14:47:00,44.4,29.7,29.82,NNW,330,8.9,15.0,56,0.00,CLR,,0.00,422.0,WeatherDisplay:10.37,2013-03-22 13:47:00,
2013-03-22 14:53:00,44.8,29.2,29.82,WNW,298,6.5,16.1,54,0.00,CLR,,0.00,390.0,WeatherDisplay:10.37,2013-03-22 13:53:00,
2013-03-22 14:58:00,44.9,29.2,29.82,NNW,347,5.8,11.5,54,0.00,CLR,,0.00,392.0,WeatherDisplay:10.37,2013-03-22 13:58:00,
2013-03-22 15:03:00,45.0,30.2,29.81,NNW,342,5.2,10.4,56,0.00,CLR,,0.00,373.0,WeatherDisplay:10.37,2013-03-22 14:03:00,
2013-03-22 15:08:00,44.8,29.2,29.82,West,281,7.0,19.6,54,0.00,CLR,,0.00,371.0,WeatherDisplay:10.37,2013-03-22 14:08:00,
2013-03-22 15:13:00,44.7,28.6,29.82,NW,315,9.8,16.0,53,0.00,CLR,,0.00,373.0,WeatherDisplay:10.37,2013-03-22 14:13:00,
2013-03-22 15:18:00,44.5,28.4,29.82,NW,326,9.2,13.8,53,0.00,CLR,,0.00,357.0,WeatherDisplay:10.37,2013-03-22 14:18:00,
2013-03-22 15:23:00,44.5,28.9,29.82,NW,307,4.9,16.1,54,0.00,CLR,,0.00,348.0,WeatherDisplay:10.37,2013-03-22 14:23:00,
2013-03-22 15:28:00,44.6,28.5,29.82,North,5,7.6,18.4,53,0.00,CLR,,0.00,320.0,WeatherDisplay:10.37,2013-03-22 14:28:00,
2013-03-22 15:33:00,44.3,28.2,29.82,NW,319,9.5,14.0,53,0.00,CLR,,0.00,318.0,WeatherDisplay:10.37,2013-03-22 14:33:00,
2013-03-22 15:38:00,44.0,29.7,29.82,NW,318,7.9,17.3,57,0.00,CLR,,0.00,304.0,WeatherDisplay:10.37,2013-03-22 14:38:00,
2013-03-22 15:43:00,43.7,29.9,29.82,WNW,286,8.3,16.1,58,0.00,CLR,,0.00,292.0,WeatherDisplay:10.37,2013-03-22 14:43:00,
2013-03-22 15:48:00,43.6,29.8,29.82,NW,311,10.9,19.6,58,0.00,CLR,,0.00,281.0,WeatherDisplay:10.37,2013-03-22 14:48:00,
2013-03-22 15:53:00,43.4,29.6,29.82,WNW,301,9.0,15.0,58,0.00,CLR,,0.00,271.0,WeatherDisplay:10.37,2013-03-22 14:53:00,
2013-03-22 15:58:00,43.1,29.7,29.83,NNW,341,7.7,13.0,59,0.00,CLR,,0.00,258.0,WeatherDisplay:10.37,2013-03-22 14:58:00,
2013-03-22 16:03:00,42.8,29.5,29.83,NW,316,9.6,15.0,59,0.00,CLR,,0.00,241.0,WeatherDisplay:10.37,2013-03-22 15:03:00,
2013-03-22 16:08:00,42.5,29.2,29.83,NW,322,10.7,19.6,59,0.00,CLR,,0.00,229.0,WeatherDisplay:10.37,2013-03-22 15:08:00,
2013-03-22 16:13:00,42.1,29.2,29.83,NNW,346,10.4,17.3,60,0.00,CLR,,0.00,216.0,WeatherDisplay:10.37,2013-03-22 15:13:00,
2013-03-22 16:18:00,41.9,29.4,29.83,NW,304,5.2,13.8,61,0.00,CLR,,0.00,199.0,WeatherDisplay:10.37,2013-03-22 15:18:00,
2013-03-22 16:23:00,41.9,29.4,29.84,North,355,8.0,13.0,61,0.00,CLR,,0.00,183.0,WeatherDisplay:10.37,2013-03-22 15:23:00,
2013-03-22 16:28:00,41.7,29.2,29.84,North,355,9.1,17.3,61,0.00,CLR,,0.00,174.0,WeatherDisplay:10.37,2013-03-22 15:28:00,
2013-03-22 16:33:00,41.5,28.6,29.84,NNW,338,10.3,19.6,60,0.00,CLR,,0.00,156.0,WeatherDisplay:10.37,2013-03-22 15:33:00,
2013-03-22 16:38:00,41.4,28.9,29.84,WNW,296,9.0,14.0,61,0.00,CLR,,0.00,146.0,WeatherDisplay:10.37,2013-03-22 15:38:00,
2013-03-22 16:43:00,41.2,28.8,29.84,WNW,298,7.0,12.0,61,0.00,CLR,,0.00,132.0,WeatherDisplay:10.37,2013-03-22 15:43:00,
2013-03-22 16:48:00,41.1,28.7,29.85,NW,321,7.5,15.0,61,0.00,CLR,,0.00,118.0,WeatherDisplay:10.37,2013-03-22 15:48:00,
2013-03-22 16:53:00,41.0,28.6,29.84,NW,315,6.3,11.5,61,0.00,CLR,,0.00,104.0,WeatherDisplay:10.37,2013-03-22 15:53:00,
2013-03-22 16:58:00,40.8,28.4,29.85,NW,315,7.5,15.0,61,0.00,CLR,,0.00,88.0,WeatherDisplay:10.37,2013-03-22 15:58:00,
2013-03-22 17:03:00,40.6,28.2,29.85,NW,312,8.3,13.8,61,0.00,CLR,,0.00,77.0,WeatherDisplay:10.37,2013-03-22 16:03:00,
2013-03-22 17:08:00,40.3,27.9,29.86,WNW,303,9.3,16.1,61,0.00,CLR,,0.00,67.0,WeatherDisplay:10.37,2013-03-22 16:08:00,
2013-03-22 17:13:00,39.9,27.5,29.86,NW,310,8.1,12.7,61,0.00,CLR,,0.00,56.0,WeatherDisplay:10.37,2013-03-22 16:13:00,
2013-03-22 17:18:00,39.7,27.7,29.86,NW,318,5.7,13.8,62,0.00,CLR,,0.00,46.0,WeatherDisplay:10.37,2013-03-22 16:18:00,
2013-03-22 17:23:00,39.5,27.9,29.86,North,355,2.4,8.1,63,0.00,CLR,,0.00,37.0,WeatherDisplay:10.37,2013-03-22 16:23:00,
2013-03-22 17:28:00,39.3,27.7,29.86,North,360,6.9,15.0,63,0.00,CLR,,0.00,30.0,WeatherDisplay:10.37,2013-03-22 16:28:00,
2013-03-22 17:33:00,39.1,27.6,29.87,NW,321,6.9,9.2,63,0.00,CLR,,0.00,23.0,WeatherDisplay:10.37,2013-03-22 16:33:00,
2013-03-22 17:38:00,38.8,27.3,29.87,NNW,327,9.3,16.1,63,0.00,CLR,,0.00,19.0,WeatherDisplay:10.37,2013-03-22 16:38:00,
2013-03-22 17:43:00,38.6,27.1,29.87,WNW,301,4.1,11.5,63,0.00,CLR,,0.00,16.0,WeatherDisplay:10.37,2013-03-22 16:43:00,
2013-03-22 17:48:00,38.4,27.3,29.87,WNW,285,4.5,10.4,64,0.00,CLR,,0.00,11.0,WeatherDisplay:10.37,2013-03-22 16:48:00,
2013-03-22 17:53:00,38.2,27.1,29.87,WNW,296,8.5,15.0,64,0.00,CLR,,0.00,7.0,WeatherDisplay:10.37,2013-03-22 16:53:00,
2013-03-22 17:58:00,38.0,27.3,29.87,West,275,4.6,9.2,65,0.00,CLR,,0.00,5.0,WeatherDisplay:10.37,2013-03-22 16:58:00,
2013-03-22 18:03:00,37.8,27.1,29.87,NNW,347,5.7,11.5,65,0.00,CLR,,0.00,0.0,WeatherDisplay:10.37,2013-03-22 17:03:00,
2013-03-22 18:08:00,37.6,26.9,29.87,NW,314,5.0,9.2,65,0.00,CLR,,0.00,0.0,WeatherDisplay:10.37,2013-03-22 17:08:00,
2013-03-22 18:13:00,37.4,27.1,29.88,NNW,336,6.2,11.5,66,0.00,CLR,,0.00,0.0,WeatherDisplay:10.37,2013-03-22 17:13:00,
2013-03-22 18:18:00,37.2,26.9,29.88,NNW,340,3.5,10.4,66,0.00,CLR,,0.00,0.0,WeatherDisplay:10.37,2013-03-22 17:18:00,
2013-03-22 18:23:00,37.1,26.8,29.88,North,5,4.8,8.1,66,0.00,CLR,,0.00,0.0,WeatherDisplay:10.37,2013-03-22 17:23:00,
2013-03-22 18:28:00,36.9,26.6,29.88,NW,318,6.6,10.4,66,0.00,CLR,,0.00,0.0,WeatherDisplay:10.37,2013-03-22 17:28:00,
2013-03-22 18:33:00,36.7,26.8,29.88,NNW,327,5.5,9.2,67,0.00,CLR,,0.00,0.0,WeatherDisplay:10.37,2013-03-22 17:33:00,
2013-03-22 18:38:00,36.6,26.7,29.88,NW,319,2.1,4.6,67,0.00,CLR,,0.00,0.0,WeatherDisplay:10.37,2013-03-22 17:38:00,
2013-03-22 18:43:00,36.4,26.5,29.89,North,355,7.1,12.0,67,0.00,CLR,,0.00,0.0,WeatherDisplay:10.37,2013-03-22 17:43:00,
2013-03-22 18:48:00,36.2,26.3,29.89,NW,321,5.3,12.7,67,0.00,CLR,,0.00,0.0,WeatherDisplay:10.37,2013-03-22 17:48:00,
2013-03-22 18:53:00,36.1,26.6,29.90,NNW,342,2.9,9.2,68,0.00,CLR,,0.00,0.0,WeatherDisplay:10.37,2013-03-22 17:53:00,
2013-03-22 18:58:00,36.0,26.5,29.90,WNW,298,2.5,6.0,68,0.00,CLR,,0.00,0.0,WeatherDisplay:10.37,2013-03-22 17:58:00,
2013-03-22 19:03:00,35.8,26.3,29.90,WNW,289,1.5,3.5,68,0.00,CLR,,0.00,0.0,WeatherDisplay:10.37,2013-03-22 18:03:00,
2013-03-22 19:08:00,35.7,26.5,29.91,WNW,291,5.8,10.4,69,0.00,CLR,,0.00,0.0,WeatherDisplay:10.37,2013-03-22 18:08:00,
2013-03-22 19:13:00,35.5,26.3,29.91,North,349,4.9,10.4,69,0.00,CLR,,0.00,0.0,WeatherDisplay:10.37,2013-03-22 18:13:00,
2013-03-22 19:18:00,35.4,26.2,29.91,NW,318,4.2,10.0,69,0.00,CLR,,0.00,0.0,WeatherDisplay:10.37,2013-03-22 18:18:00,
2013-03-22 19:23:00,35.2,26.0,29.91,North,355,5.8,13.0,69,0.00,CLR,,0.00,0.0,WeatherDisplay:10.37,2013-03-22 18:23:00,
2013-03-22 19:28:00,35.1,25.9,29.92,NW,319,1.8,5.8,69,0.00,CLR,,0.00,0.0,WeatherDisplay:10.37,2013-03-22 18:28:00,
2013-03-22 19:33:00,35.0,25.9,29.92,NNW,347,5.7,10.0,69,0.00,CLR,,0.00,0.0,WeatherDisplay:10.37,2013-03-22 18:33:00,
2013-03-22 19:38:00,34.9,25.8,29.92,WNW,299,7.8,12.0,69,0.00,CLR,,0.00,0.0,WeatherDisplay:10.37,2013-03-22 18:38:00,
2013-03-22 19:43:00,34.9,25.8,29.92,NNW,338,2.5,6.9,69,0.00,CLR,,0.00,0.0,WeatherDisplay:10.37,2013-03-22 18:43:00,
2013-03-22 19:48:00,34.7,25.6,29.92,NNW,331,6.0,10.4,69,0.00,CLR,,0.00,0.0,WeatherDisplay:10.37,2013-03-22 18:48:00,
2013-03-22 19:53:00,34.7,25.6,29.92,NW,306,4.5,9.2,69,0.00,CLR,,0.00,0.0,WeatherDisplay:10.37,2013-03-22 18:53:00,
2013-03-22 19:58:00,34.5,25.7,29.92,North,360,4.5,8.1,70,0.00,CLR,,0.00,0.0,WeatherDisplay:10.37,2013-03-22 18:58:00,
2013-03-22 20:03:00,34.4,25.6,29.92,WNW,298,4.1,8.0,70,0.00,CLR,,0.00,0.0,WeatherDisplay:10.37,2013-03-22 19:03:00,
2013-03-22 20:08:00,34.3,25.5,29.92,NNW,335,4.7,9.2,70,0.00,CLR,,0.00,0.0,WeatherDisplay:10.37,2013-03-22 19:08:00,
2013-03-22 20:13:00,34.2,25.8,29.93,NNW,329,1.6,3.5,71,0.00,CLR,,0.00,0.0,WeatherDisplay:10.37,2013-03-22 19:13:00,
2013-03-22 20:18:00,34.0,25.6,29.93,North,5,0.0,4.6,71,0.00,CLR,,0.00,0.0,WeatherDisplay:10.37,2013-03-22 19:18:00,
2013-03-22 20:23:00,33.9,25.5,29.93,NNW,338,1.5,4.6,71,0.00,CLR,,0.00,0.0,WeatherDisplay:10.37,2013-03-22 19:23:00,
2013-03-22 20:28:00,33.8,25.7,29.93,NNW,336,2.3,4.6,72,0.00,CLR,,0.00,0.0,WeatherDisplay:10.37,2013-03-22 19:28:00,
2013-03-22 20:33:00,33.7,25.6,29.93,NNW,342,3.1,5.0,72,0.00,CLR,,0.00,0.0,WeatherDisplay:10.37,2013-03-22 19:33:00,
2013-03-22 20:38:00,33.6,25.5,29.93,NW,326,1.0,3.5,72,0.00,CLR,,0.00,0.0,WeatherDisplay:10.37,2013-03-22 19:38:00,
2013-03-22 20:43:00,33.5,25.8,29.93,NNW,340,1.0,4.0,73,0.00,CLR,,0.00,0.0,WeatherDisplay:10.37,2013-03-22 19:43:00,
2013-03-22 20:48:00,33.4,25.7,29.93,NNW,346,1.4,5.0,73,0.00,CLR,,0.00,0.0,WeatherDisplay:10.37,2013-03-22 19:48:00,
2013-03-22 20:53:00,33.3,25.9,29.93,NNW,340,1.1,3.5,74,0.00,CLR,,0.00,0.0,WeatherDisplay:10.37,2013-03-22 19:53:00,
2013-03-22 20:58:00,33.2,25.8,29.93,North,360,1.5,4.6,74,0.00,CLR,,0.00,0.0,WeatherDisplay:10.37,2013-03-22 19:58:00,
2013-03-22 21:03:00,33.1,25.7,29.92,North,360,0.2,2.3,74,0.00,CLR,,0.00,0.0,WeatherDisplay:10.37,2013-03-22 20:03:00,
2013-03-22 21:08:00,33.0,25.9,29.92,NNE,24,1.3,2.3,75,0.00,CLR,,0.00,0.0,WeatherDisplay:10.37,2013-03-22 20:08:00,
2013-03-22 21:13:00,32.8,25.7,29.92,North,10,1.1,3.5,75,0.00,CLR,,0.00,0.0,WeatherDisplay:10.37,2013-03-22 20:13:00,
2013-03-22 21:18:00,32.7,25.6,29.93,North,10,0.1,2.3,75,0.00,CLR,,0.00,0.0,WeatherDisplay:10.37,2013-03-22 20:18:00,
2013-03-22 21:23:00,32.6,25.6,29.94,NW,325,0.4,3.0,75,0.00,CLR,,0.00,0.0,WeatherDisplay:10.37,2013-03-22 20:23:00,
2013-03-22 21:28:00,32.4,25.7,29.94,NW,326,0.3,1.2,76,0.00,CLR,,0.00,0.0,WeatherDisplay:10.37,2013-03-22 20:28:00,
2013-03-22 21:33:00,32.4,25.7,29.93,NW,326,0.0,1.2,76,0.00,CLR,,0.00,0.0,WeatherDisplay:10.37,2013-03-22 20:33:00,
2013-03-22 21:38:00,32.4,26.0,29.93,NW,326,0.0,1.2,77,0.00,CLR,,0.00,0.0,WeatherDisplay:10.37,2013-03-22 20:38:00,
2013-03-22 21:43:00,32.3,25.9,29.93,NW,326,0.0,0.0,77,0.00,CLR,,0.00,0.0,WeatherDisplay:10.37,2013-03-22 20:43:00,
2013-03-22 21:48:00,32.3,25.9,29.94,NW,326,0.0,0.0,77,0.00,CLR,,0.00,0.0,WeatherDisplay:10.37,2013-03-22 20:48:00,
2013-03-22 21:53:00,32.2,25.8,29.94,NW,326,0.0,1.2,77,0.00,CLR,,0.00,0.0,WeatherDisplay:10.37,2013-03-22 20:53:00,
2013-03-22 21:58:00,32.1,25.7,29.95,NW,326,0.0,1.2,77,0.00,CLR,,0.00,0.0,WeatherDisplay:10.37,2013-03-22 20:58:00,
2013-03-22 22:03:00,32.1,26.0,29.95,NW,326,0.0,0.0,78,0.00,CLR,,0.00,0.0,WeatherDisplay:10.37,2013-03-22 21:03:00,
2013-03-22 22:08:00,32.1,26.0,29.95,NW,326,0.0,0.0,78,0.00,CLR,,0.00,0.0,WeatherDisplay:10.37,2013-03-22 21:08:00,
2013-03-22 22:13:00,32.1,26.0,29.95,NW,326,0.0,1.2,78,0.00,CLR,,0.00,0.0,WeatherDisplay:10.37,2013-03-22 21:13:00,
2013-03-22 22:18:00,32.0,25.9,29.95,NW,326,0.0,1.2,78,0.00,CLR,,0.00,0.0,WeatherDisplay:10.37,2013-03-22 21:18:00,
2013-03-22 22:23:00,32.0,26.2,29.95,NW,326,0.0,0.0,79,0.00,CLR,,0.00,0.0,WeatherDisplay:10.37,2013-03-22 21:23:00,
2013-03-22 22:28:00,32.1,26.0,29.95,NW,326,0.0,0.0,78,0.00,CLR,,0.00,0.0,WeatherDisplay:10.37,2013-03-22 21:28:00,
2013-03-22 22:33:00,32.1,26.3,29.95,NW,325,0.2,2.3,79,0.00,CLR,,0.00,0.0,WeatherDisplay:10.37,2013-03-22 21:33:00,
2013-03-22 22:39:00,32.1,26.3,29.95,NW,326,0.0,0.0,79,0.00,CLR,,0.00,0.0,WeatherDisplay:10.37,2013-03-22 21:39:00,
2013-03-22 22:44:00,32.0,25.9,29.95,NW,317,0.6,2.3,78,0.00,CLR,,0.00,0.0,WeatherDisplay:10.37,2013-03-22 21:44:00,
2013-03-22 22:49:00,32.0,25.9,29.95,NE,40,2.3,4.0,78,0.00,CLR,,0.00,0.0,WeatherDisplay:10.37,2013-03-22 21:49:00,
2013-03-22 22:54:00,31.9,25.8,29.95,NNW,341,2.2,5.0,78,0.00,CLR,,0.00,0.0,WeatherDisplay:10.37,2013-03-22 21:54:00,
2013-03-22 22:59:00,31.8,25.7,29.96,North,9,0.5,3.5,78,0.00,CLR,,0.00,0.0,WeatherDisplay:10.37,2013-03-22 21:59:00,
2013-03-22 23:04:00,31.8,25.7,29.96,North,355,1.7,3.5,78,0.00,CLR,,0.00,0.0,WeatherDisplay:10.37,2013-03-22 22:04:00,
2013-03-22 23:09:00,31.7,25.6,29.95,North,9,1.1,3.5,78,0.00,CLR,,0.00,0.0,WeatherDisplay:10.37,2013-03-22 22:09:00,
2013-03-22 23:14:00,31.6,25.5,29.95,NNE,17,0.3,3.5,78,0.00,CLR,,0.00,0.0,WeatherDisplay:10.37,2013-03-22 22:14:00,
2013-03-22 23:19:00,31.5,25.4,29.96,NNE,23,1.6,3.5,78,0.00,CLR,,0.00,0.0,WeatherDisplay:10.37,2013-03-22 22:19:00,
2013-03-22 23:24:00,31.4,25.3,29.96,North,9,1.1,3.5,78,0.00,CLR,,0.00,0.0,WeatherDisplay:10.37,2013-03-22 22:24:00,
2013-03-22 23:29:00,31.3,25.2,29.95,NNE,28,1.3,3.5,78,0.00,CLR,,0.00,0.0,WeatherDisplay:10.37,2013-03-22 22:29:00,
2013-03-22 23:34:00,31.1,25.0,29.95,NNE,26,0.2,1.2,78,0.00,CLR,,0.00,0.0,WeatherDisplay:10.37,2013-03-22 22:34:00,
2013-03-22 23:39:00,31.0,24.9,29.95,NNE,26,0.2,1.2,78,0.00,CLR,,0.00,0.0,WeatherDisplay:10.37,2013-03-22 22:39:00,
2013-03-22 23:44:00,30.9,24.8,29.96,NNE,26,0.0,1.2,78,0.00,CLR,,0.00,0.0,WeatherDisplay:10.37,2013-03-22 22:44:00,
2013-03-22 23:49:00,30.8,25.1,29.96,NNE,26,0.0,0.0,79,0.00,CLR,,0.00,0.0,WeatherDisplay:10.37,2013-03-22 22:49:00,
2013-03-22 23:54:00,30.6,24.9,29.95,NNE,26,0.1,1.2,79,0.00,CLR,,0.00,0.0,WeatherDisplay:10.37,2013-03-22 22:54:00,
2013-03-22 23:59:00,30.5,24.8,29.95,NNE,26,0.0,1.2,79,0.00,CLR,,0.00,0.0,WeatherDisplay:10.37,2013-03-22 22:59:00,